Time,TemperatureF,DewpointF,PressureIn,WindDirection,WindDirectionDegrees,WindSpeedMPH,WindSpeedGustMPH,Humidity,HourlyPrecipIn,Conditions,Clouds,dailyrainin,SoftwareType,DateUTC
2013-01-18 00:14:00,-10.3,-14.0,30.24,East,79,0.0,0.0,82,0.00,,,0.00,weatherlink.com 1.10,2013-01-18 09:14:00,
2013-01-18 00:29:00,-10.7,-15.0,30.24,NW,311,0.0,0.0,81,0.00,,,0.00,weatherlink.com 1.10,2013-01-18 09:29:00,
2013-01-18 00:44:00,-11.1,-15.0,30.25,East,86,0.0,1.0,81,0.00,,,0.00,weatherlink.com 1.10,2013-01-18 09:44:00,
2013-01-18 00:59:00,-10.9,-15.0,30.25,East,86,0.0,0.0,81,0.00,,,0.00,weatherlink.com 1.10,2013-01-18 09:59:00,
2013-01-18 01:14:00,-10.9,-15.0,30.25,East,86,0.0,1.0,82,0.00,,,0.00,weatherlink.com 1.10,2013-01-18 10:14:00,
2013-01-18 01:29:00,-10.9,-15.0,30.25,East,96,0.0,1.0,81,0.00,,,0.00,weatherlink.com 1.10,2013-01-18 10:29:00,
2013-01-18 01:44:00,-11.2,-15.0,30.26,NNW,345,0.0,0.0,81,0.00,,,0.00,weatherlink.com 1.10,2013-01-18 10:44:00,
2013-01-18 02:00:00,-11.1,-15.0,30.26,NE,46,0.0,0.0,82,0.00,,,0.00,weatherlink.com 1.10,2013-01-18 11:00:00,
2013-01-18 02:15:00,-11.2,-15.0,30.27,NW,326,0.0,1.0,82,0.00,,,0.00,weatherlink.com 1.10,2013-01-18 11:15:00,
2013-01-18 02:30:00,-11.2,-15.0,30.27,WNW,291,0.0,0.0,81,0.00,,,0.00,weatherlink.com 1.10,2013-01-18 11:30:00,
2013-01-18 02:45:00,-12.0,-16.0,30.28,East,89,0.0,1.0,81,0.00,,,0.00,weatherlink.com 1.10,2013-01-18 11:45:00,
2013-01-18 03:00:00,-11.7,-16.0,30.28,East,89,0.0,0.0,82,0.00,,,0.00,weatherlink.com 1.10,2013-01-18 12:00:00,
2013-01-18 03:15:00,-11.5,-16.0,30.29,NW,313,0.0,0.0,81,0.00,,,0.00,weatherlink.com 1.10,2013-01-18 12:15:00,
2013-01-18 03:30:00,-11.9,-16.0,30.29,NNE,32,0.0,0.0,81,0.00,,,0.00,weatherlink.com 1.10,2013-01-18 12:30:00,
2013-01-18 03:45:00,-12.0,-16.0,30.30,NNE,32,0.0,0.0,82,0.00,,,0.00,weatherlink.com 1.10,2013-01-18 12:45:00,
2013-01-18 04:00:00,-12.3,-17.0,30.30,NNE,32,0.0,0.0,81,0.00,,,0.00,weatherlink.com 1.10,2013-01-18 13:00:00,
2013-01-18 04:15:00,-12.6,-17.0,30.31,North,349,0.0,0.0,81,0.00,,,0.00,weatherlink.com 1.10,2013-01-18 13:15:00,
2013-01-18 04:30:00,-12.6,-17.0,30.32,North,349,0.0,0.0,81,0.00,,,0.00,weatherlink.com 1.10,2013-01-18 13:30:00,
2013-01-18 04:45:00,-12.5,-17.0,30.31,North,349,0.0,0.0,82,0.00,,,0.00,weatherlink.com 1.10,2013-01-18 13:45:00,
2013-01-18 05:00:00,-12.7,-17.0,30.31,North,349,0.0,0.0,82,0.00,,,0.00,weatherlink.com 1.10,2013-01-18 14:00:00,
2013-01-18 05:16:00,-12.7,-17.0,30.32,NNW,331,0.0,0.0,82,0.00,,,0.00,weatherlink.com 1.10,2013-01-18 14:16:00,
2013-01-18 05:31:00,-12.6,-17.0,30.32,East,83,0.0,1.0,82,0.00,,,0.00,weatherlink.com 1.10,2013-01-18 14:31:00,
2013-01-18 05:46:00,-12.4,-16.0,30.33,East,101,0.0,1.0,82,0.00,,,0.00,weatherlink.com 1.10,2013-01-18 14:46:00,
2013-01-18 06:01:00,-12.1,-16.0,30.34,ENE,65,0.0,0.0,82,0.00,,,0.00,weatherlink.com 1.10,2013-01-18 15:01:00,
2013-01-18 06:16:00,-12.4,-17.0,30.34,ENE,65,0.0,0.0,81,0.00,,,0.00,weatherlink.com 1.10,2013-01-18 15:16:00,
2013-01-18 06:31:00,-13.0,-17.0,30.34,ENE,65,0.0,0.0,81,0.00,,,0.00,weatherlink.com 1.10,2013-01-18 15:31:00,
2013-01-18 06:46:00,-12.9,-17.0,30.35,ENE,65,0.0,0.0,81,0.00,,,0.00,weatherlink.com 1.10,2013-01-18 15:46:00,
2013-01-18 07:01:00,-12.9,-17.0,30.35,ENE,65,0.0,0.0,81,0.00,,,0.00,weatherlink.com 1.10,2013-01-18 16:01:00,
2013-01-18 07:16:00,-13.1,-17.0,30.36,North,358,0.0,0.0,81,0.00,,,0.00,weatherlink.com 1.10,2013-01-18 16:16:00,
2013-01-18 07:31:00,-13.4,-18.0,30.36,NNE,17,0.0,0.0,80,0.00,,,0.00,weatherlink.com 1.10,2013-01-18 16:31:00,
2013-01-18 07:46:00,-13.5,-18.0,30.37,NNE,17,0.0,0.0,81,0.00,,,0.00,weatherlink.com 1.10,2013-01-18 16:46:00,
2013-01-18 08:01:00,-13.7,-18.0,30.37,NNE,17,0.0,0.0,80,0.00,,,0.00,weatherlink.com 1.10,2013-01-18 17:01:00,
2013-01-18 08:16:00,-13.9,-18.0,30.38,NNE,17,0.0,0.0,81,0.00,,,0.00,weatherlink.com 1.10,2013-01-18 17:16:00,
2013-01-18 08:31:00,-14.0,-18.0,30.39,NNE,17,0.0,0.0,81,0.00,,,0.00,weatherlink.com 1.10,2013-01-18 17:31:00,
2013-01-18 08:47:00,-14.3,-19.0,30.39,NNE,17,0.0,0.0,81,0.00,,,0.00,weatherlink.com 1.10,2013-01-18 17:47:00,
2013-01-18 09:02:00,-14.7,-19.0,30.39,NNE,17,0.0,0.0,80,0.00,,,0.00,weatherlink.com 1.10,2013-01-18 18:02:00,
2013-01-18 09:17:00,-14.7,-19.0,30.39,NNE,17,0.0,0.0,82,0.00,,,0.00,weatherlink.com 1.10,2013-01-18 18:17:00,
2013-01-18 09:32:00,-15.1,-20.0,30.40,NNE,17,0.0,0.0,80,0.00,,,0.00,weatherlink.com 1.10,2013-01-18 18:32:00,
2013-01-18 09:47:00,-15.0,-19.0,30.41,NNE,17,0.0,0.0,80,0.00,,,0.00,weatherlink.com 1.10,2013-01-18 18:47:00,
2013-01-18 10:02:00,-15.1,-19.0,30.41,NNE,19,0.0,0.0,81,0.00,,,0.00,weatherlink.com 1.10,2013-01-18 19:02:00,
2013-01-18 10:17:00,-15.0,-19.0,30.42,NNE,19,0.0,0.0,81,0.00,,,0.00,weatherlink.com 1.10,2013-01-18 19:17:00,
2013-01-18 10:32:00,-14.7,-19.0,30.43,NNE,20,0.0,2.0,81,0.00,,,0.00,weatherlink.com 1.10,2013-01-18 19:32:00,
2013-01-18 10:47:00,-14.8,-19.0,30.43,NNE,20,0.0,0.0,81,0.00,,,0.00,weatherlink.com 1.10,2013-01-18 19:47:00,
2013-01-18 11:02:00,-14.5,-19.0,30.43,NNE,25,0.0,0.0,81,0.00,,,0.00,weatherlink.com 1.10,2013-01-18 20:02:00,
2013-01-18 11:17:00,-14.2,-18.0,30.44,NNE,25,0.0,0.0,81,0.00,,,0.00,weatherlink.com 1.10,2013-01-18 20:17:00,
2013-01-18 11:32:00,-13.7,-18.0,30.45,NE,40,0.0,0.0,82,0.00,,,0.00,weatherlink.com 1.10,2013-01-18 20:32:00,
2013-01-18 11:47:00,-13.4,-18.0,30.45,NE,40,0.0,0.0,81,0.00,,,0.00,weatherlink.com 1.10,2013-01-18 20:47:00,
2013-01-18 12:02:00,-13.5,-18.0,30.45,NE,40,0.0,0.0,80,0.00,,,0.00,weatherlink.com 1.10,2013-01-18 21:02:00,
2013-01-18 12:18:00,-13.1,-17.0,30.45,NE,40,0.0,0.0,81,0.00,,,0.00,weatherlink.com 1.10,2013-01-18 21:18:00,
2013-01-18 12:33:00,-13.3,-18.0,30.46,NE,41,0.0,0.0,81,0.00,,,0.00,weatherlink.com 1.10,2013-01-18 21:33:00,
2013-01-18 12:48:00,-13.1,-17.0,30.46,NE,41,0.0,0.0,81,0.00,,,0.00,weatherlink.com 1.10,2013-01-18 21:48:00,
2013-01-18 13:18:00,-12.5,-17.0,30.47,SSE,158,0.0,0.0,81,0.00,,,0.00,weatherlink.com 1.10,2013-01-18 22:18:00,
2013-01-18 13:33:00,-12.1,-16.0,30.47,SSE,159,0.0,0.0,82,0.00,,,0.00,weatherlink.com 1.10,2013-01-18 22:33:00,
2013-01-18 13:48:00,-11.9,-16.0,30.47,SSE,158,0.0,0.0,81,0.00,,,0.00,weatherlink.com 1.10,2013-01-18 22:48:00,
2013-01-18 14:03:00,-11.8,-16.0,30.47,SSE,159,0.0,0.0,81,0.00,,,0.00,weatherlink.com 1.10,2013-01-18 23:03:00,
2013-01-18 14:18:00,-11.8,-16.0,30.47,SSE,159,0.0,0.0,81,0.00,,,0.00,weatherlink.com 1.10,2013-01-18 23:18:00,
2013-01-18 14:33:00,-11.9,-16.0,30.47,SSE,158,0.0,0.0,81,0.00,,,0.00,weatherlink.com 1.10,2013-01-18 23:33:00,
2013-01-18 14:48:00,-11.8,-16.0,30.47,SSE,149,0.0,0.0,81,0.00,,,0.00,weatherlink.com 1.10,2013-01-18 23:48:00,
2013-01-18 15:03:00,-12.2,-16.0,30.48,East,89,0.0,1.0,81,0.00,,,0.00,weatherlink.com 1.10,2013-01-19 00:03:00,
2013-01-18 15:18:00,-12.0,-16.0,30.47,East,89,0.0,0.0,81,0.00,,,0.00,weatherlink.com 1.10,2013-01-19 00:18:00,
2013-01-18 15:34:00,-12.2,-16.0,30.47,East,89,0.0,0.0,81,0.00,,,0.00,weatherlink.com 1.10,2013-01-19 00:34:00,
2013-01-18 15:49:00,-12.3,-17.0,30.47,East,89,0.0,0.0,81,0.00,,,0.00,weatherlink.com 1.10,2013-01-19 00:49:00,
2013-01-18 16:04:00,-12.2,-16.0,30.48,East,89,0.0,0.0,81,0.00,,,0.00,weatherlink.com 1.10,2013-01-19 01:04:00,
2013-01-18 16:19:00,-11.8,-16.0,30.48,East,89,0.0,0.0,83,0.00,,,0.00,weatherlink.com 1.10,2013-01-19 01:19:00,
2013-01-18 16:34:00,-11.4,-15.0,30.48,East,89,0.0,0.0,82,0.00,,,0.00,weatherlink.com 1.10,2013-01-19 01:34:00,
2013-01-18 16:49:00,-11.3,-15.0,30.48,East,89,0.0,0.0,82,0.00,,,0.00,weatherlink.com 1.10,2013-01-19 01:49:00,
2013-01-18 17:04:00,-11.1,-15.0,30.49,East,89,0.0,0.0,82,0.00,,,0.00,weatherlink.com 1.10,2013-01-19 02:04:00,
2013-01-18 17:19:00,-11.2,-15.0,30.49,East,89,0.0,0.0,81,0.00,,,0.00,weatherlink.com 1.10,2013-01-19 02:19:00,
2013-01-18 17:34:00,-11.1,-15.0,30.50,East,89,0.0,0.0,81,0.00,,,0.00,weatherlink.com 1.10,2013-01-19 02:34:00,
2013-01-18 17:49:00,-11.0,-15.0,30.50,East,89,0.0,0.0,82,0.00,,,0.00,weatherlink.com 1.10,2013-01-19 02:49:00,
2013-01-18 18:04:00,-11.1,-15.0,30.50,East,89,0.0,0.0,82,0.00,,,0.00,weatherlink.com 1.10,2013-01-19 03:04:00,
2013-01-18 18:19:00,-11.3,-16.0,30.50,East,89,0.0,0.0,81,0.00,,,0.00,weatherlink.com 1.10,2013-01-19 03:19:00,
2013-01-18 18:34:00,-11.3,-16.0,30.50,East,89,0.0,0.0,81,0.00,,,0.00,weatherlink.com 1.10,2013-01-19 03:34:00,
2013-01-18 18:49:00,-11.3,-15.0,30.50,East,89,0.0,0.0,82,0.00,,,0.00,weatherlink.com 1.10,2013-01-19 03:49:00,
2013-01-18 19:05:00,-10.9,-15.0,30.50,East,89,0.0,0.0,82,0.00,,,0.00,weatherlink.com 1.10,2013-01-19 04:05:00,
2013-01-18 19:20:00,-10.9,-15.0,30.51,East,89,0.0,0.0,81,0.00,,,0.00,weatherlink.com 1.10,2013-01-19 04:20:00,
2013-01-18 19:35:00,-10.9,-15.0,30.51,East,89,0.0,0.0,81,0.00,,,0.00,weatherlink.com 1.10,2013-01-19 04:35:00,
2013-01-18 19:50:00,-10.6,-14.0,30.51,East,89,0.0,0.0,83,0.00,,,0.00,weatherlink.com 1.10,2013-01-19 04:50:00,
2013-01-18 20:05:00,-10.9,-15.0,30.52,East,89,0.0,0.0,81,0.00,,,0.00,weatherlink.com 1.10,2013-01-19 05:05:00,
2013-01-18 20:20:00,-11.0,-15.0,30.52,East,89,0.0,1.0,82,0.00,,,0.00,weatherlink.com 1.10,2013-01-19 05:20:00,
2013-01-18 20:35:00,-10.9,-15.0,30.51,East,89,0.0,1.0,83,0.00,,,0.00,weatherlink.com 1.10,2013-01-19 05:35:00,
2013-01-18 20:50:00,-10.7,-14.0,30.50,ENE,78,0.0,0.0,84,0.00,,,0.00,weatherlink.com 1.10,2013-01-19 05:50:00,
2013-01-18 21:05:00,-10.8,-15.0,30.50,NW,321,0.0,1.0,83,0.00,,,0.00,weatherlink.com 1.10,2013-01-19 06:05:00,
2013-01-18 21:20:00,-9.9,-13.0,30.50,East,94,0.0,0.0,84,0.00,,,0.00,weatherlink.com 1.10,2013-01-19 06:20:00,
2013-01-18 21:35:00,-9.3,-13.0,30.50,ENE,69,0.0,0.0,84,0.00,,,0.00,weatherlink.com 1.10,2013-01-19 06:35:00,
2013-01-18 21:50:00,-8.8,-13.0,30.50,East,83,0.0,0.0,83,0.00,,,0.00,weatherlink.com 1.10,2013-01-19 06:50:00,
2013-01-18 22:05:00,-8.0,-12.0,30.50,East,91,0.0,1.0,82,0.00,,,0.00,weatherlink.com 1.10,2013-01-19 07:05:00,
2013-01-18 22:20:00,-7.3,-11.0,30.51,East,84,0.0,1.0,82,0.00,,,0.00,weatherlink.com 1.10,2013-01-19 07:20:00,
2013-01-18 22:36:00,-8.3,-12.0,30.51,NNW,342,0.0,1.0,82,0.00,,,0.00,weatherlink.com 1.10,2013-01-19 07:36:00,
2013-01-18 22:51:00,-9.2,-14.0,30.51,NW,317,0.0,0.0,81,0.00,,,0.00,weatherlink.com 1.10,2013-01-19 07:51:00,
2013-01-18 23:06:00,-9.4,-13.0,30.52,East,80,0.0,0.0,82,0.00,,,0.00,weatherlink.com 1.10,2013-01-19 08:06:00,
2013-01-18 23:21:00,-9.7,-14.0,30.52,East,98,0.0,0.0,81,0.00,,,0.00,weatherlink.com 1.10,2013-01-19 08:21:00,
2013-01-18 23:36:00,-9.6,-14.0,30.52,East,86,0.0,0.0,82,0.00,,,0.00,weatherlink.com 1.10,2013-01-19 08:36:00,
2013-01-18 23:51:00,-10.0,-14.0,30.52,NW,304,0.0,0.0,82,0.00,,,0.00,weatherlink.com 1.10,2013-01-19 08:51:00,